Погода в Курорте

Россия / Республика Башкортостан     53°55′20″N   56°31′21″E
темп.,
°C
ветер,
м/с
пор.,
м/с
влажн.,
%
обл.,
%
осадки,
мм/ч
давл.,
гПа
погр.,
м
18 апреля, вс
вс1823:00+9с35715 0.0 102095
02:00+7с22722 0.0 101934
05:00+5с23744 0.0 101945
08:00+6с25673 0.0 1019173
11:00+11с56451 0.0 1018739
14:00+13с66362 0.0 10181331
17:00+14ссв66384 0.0 10181663
20:00+9ссв6116231 0.0 1019448
19 апреля, пн
пн1923:00+5в6126715 0.0 1022600
02:00+4вюв71352100 0.0 1024705
05:00+2вюв61150100 0.0 1026738
08:00+1вюв61248100 0.0 1028747
11:00+4в6836100 0.0 10291067
14:00+7в663087 0.0 10291577
17:00+7в662662 0.0 10291714
20:00+4вюв59330 0.0 1030515
20 апреля, вт
вт2023:00+1вюв49410 0.0 1033415
02:00−1вюв38450 0.0 1034283
05:00−2в25460 0.0 1035129
08:000в47360 0.0 1036867
11:00+4вюв45260 0.0 10351350
14:00+8вюв34225 0.0 10341689
17:00+9в33220 0.0 10331725
20:00+6в22370 0.0 103310
21 апреля, ср
ср2123:00+2ююв11450 0.0 103510
02:00+1юв11490 0.0 103410
05:000ююв11490 0.0 103510
08:00+2ююв11430 0.0 1036154
11:00+8всв12313 0.0 1035788
14:00+12юз232551 0.0 10331522
17:00+14ююв232450 0.0 10321569
20:00+10ю224261 0.0 103215
22 апреля, чт
чт2223:00+6ююв2253100 0.0 103420
02:00+5юв22575 0.0 103518
05:00+3юв2257100 0.0 103615
08:00+6юв255145 0.0 1036173
11:00+11ю5732100 0.0 10361202
14:00+14ююз5728100 0.0 10351558
17:00+13ююз5731100 0.0 10341398
20:00+10ю2248100 0.0 103429